Location: Bushey
(51.6333°N, 0.3667°W)
Time: 19:12:21
(UTC+00:00)

Landsat 7 - Pass Details

Date: 03 March 2021
Orbit: 701 x 703 km, 98.0° (Epoch: 17 April)

Event Time Altitude Azimuth Distance (km) Brightness Sun altitude
Exits shadow 20:17:03 47° 41° (NE) 934 4.2 -23.9°
Drops below altitude 10° 20:21:01 10° 354° (N) 2,184 6.7 -24.5°
Sets 20:23:20 0° 350° (N) 3,107 7.6 -24.8°
